Weather History for Mount Holly, NJ

Change the Weather History Date:

Monday, June 16, 2014

  Actual Average (KWRI) Record (KWRI)
Temperature  
Mean Temperature 70 °F -  
Max Temperature 87 °F 77 °F 89 °F (2008)
Min Temperature 55 °F 58 °F 46 °F (1997)
Cooling Degree Days 6    
Growing Degree Days 20 (Base 50)    
Moisture  
Dew Point 58 °F    
Average Humidity 64    
Maximum Humidity 97    
Minimum Humidity 33    
Precipitation  
Precipitation 0.00 in - - ()
Sea Level Pressure  
Sea Level Pressure 30.10 in    
Wind  
Wind Speed 1 mph (East)    
Max Wind Speed 8 mph    
Max Gust Speed -    
Visibility 10 miles    
Events      
Averages and records for this station are not official NWS values.
T = Trace of Precipitation, MM = Missing Value Source: NWS Daily Summary

Daily Weather History Graph

Daily Weather History Graph

Search for Another Location

Airport:

Trip Planner

Search our weather history database for the weather conditions in past years. The results will help you decide how hot, cold, wet, or windy it might be!

Date:

Astronomy

Jun. 16, 2014 Rise Set
Actual Time 5:30 AM EDT 8:30 PM EDT
Civil Twilight 4:57 AM EDT 9:02 PM EDT
Nautical Twilight 4:15 AM EDT 9:44 PM EDT
Astronomical Twilight 3:27 AM EDT 10:33 PM EDT
Moon 11:20 PM EDT (6/16) 9:31 AM EDT (6/16)
Length of Visible Light 16h 05m
Length of Day
14h 59m
Waning Gibbous, 83% of the Moon is Illuminated
Jun 16
Waning Gibbous
Jun 19
Last Quarter
Jun 27
New
Jul 5
First Quarter
Jul 12
Full

Hourly Weather History & Observations

Time (EDT) Temp. Heat Index Dew Point Humidity Pressure Visibility Wind Dir Wind Speed Gust Speed Precip Events Conditions
12:54 AM 62.1 °F - 57.0 °F 84% 30.10 in 10.0 mi Calm Calm - N/A   Clear
1:54 AM 60.1 °F - 57.0 °F 90% 30.11 in 10.0 mi Calm Calm - N/A   Clear
2:54 AM 59.0 °F - 55.9 °F 90% 30.12 in 10.0 mi Calm Calm - N/A   Clear
3:54 AM 57.9 °F - 55.9 °F 93% 30.11 in 10.0 mi Calm Calm - N/A   Clear
4:54 AM 57.0 °F - 55.0 °F 93% 30.12 in 10.0 mi Calm Calm - N/A   Unknown
5:54 AM 55.9 °F - 55.0 °F 97% 30.14 in 9.0 mi Calm Calm - N/A   Unknown
6:54 AM 61.0 °F - 57.0 °F 87% 30.15 in 10.0 mi Calm Calm - N/A   Unknown
7:54 AM 68.0 °F - 57.9 °F 70% 30.15 in 10.0 mi Calm Calm - N/A   Clear
8:54 AM 72.0 °F - 60.1 °F 66% 30.16 in 10.0 mi Calm Calm - N/A   Clear
9:54 AM 75.9 °F - 57.9 °F 54% 30.16 in 10.0 mi Calm Calm - N/A   Clear
10:54 AM 79.0 °F - 57.0 °F 47% 30.15 in 10.0 mi NNE 4.6 mph - N/A   Clear
11:54 AM 80.1 °F 80.4 °F 57.0 °F 45% 30.14 in 10.0 mi Calm Calm - N/A   Clear
12:54 PM 82.0 °F 81.6 °F 55.9 °F 41% 30.12 in 10.0 mi ESE 3.5 mph - N/A   Clear
1:54 PM 84.0 °F 83.3 °F 57.0 °F 40% 30.11 in 10.0 mi Variable 3.5 mph - N/A   Clear
2:54 PM 86.0 °F 84.9 °F 57.0 °F 37% 30.09 in 10.0 mi Calm Calm - N/A   Clear
3:54 PM 86.0 °F 84.2 °F 54.0 °F 33% 30.08 in 10.0 mi Calm Calm - N/A   Clear
4:54 PM 84.0 °F 84.5 °F 62.1 °F 47% 30.06 in 10.0 mi SSE 8.1 mph - N/A   Partly Cloudy
5:54 PM 82.9 °F 84.0 °F 63.0 °F 51% 30.05 in 10.0 mi Variable 6.9 mph - N/A   Clear
6:54 PM 81.0 °F 81.9 °F 62.1 °F 52% 30.04 in 10.0 mi Variable 6.9 mph - N/A   Clear
7:54 PM 78.1 °F - 61.0 °F 56% 30.05 in 10.0 mi Variable 6.9 mph - N/A   Clear
8:54 PM 75.0 °F - 61.0 °F 62% 30.07 in 10.0 mi Calm Calm - N/A   Clear
9:01 PM 75.0 °F - 61.0 °F 62% 30.08 in 10.0 mi Variable 3.5 mph - N/A   Partly Cloudy
9:54 PM 73.0 °F - 60.1 °F 64% 30.08 in 10.0 mi Variable 3.5 mph - N/A   Clear
10:54 PM 72.0 °F - 59.0 °F 64% 30.08 in 10.0 mi Calm Calm - N/A   Clear
11:54 PM 71.1 °F - 60.1 °F 68% 30.08 in 10.0 mi Variable 3.5 mph - N/A   Clear